SCP
0 0 0 0 -0 0 0 -0 -0 -0 -0 -0 -0 -0 -0 -0 -0 -0 -0 -0 -0 -0 0 0 -0 -0 0 0 -0 -0 0 -0
0 0 0 -0 0 0 0 0 -0 -0 -0 -0 -0 -0 -0 -0 -0 -0 -0 -0 -0 -0 -0 -0 -0 -0 -0 -0 -0 -0 0 0
0 0 0 -0 0 0 0 0 0 0 -0 -0 -0 -0 -0 -0 -0 -0 -0 -0 -0 -0 -0 -0 -0 -0 -0 -0 -0 0 0 0
0 0 0 0 0 0 0 0 0 0 0 0 0 0 0 -0 -0 -0 -0 -0 -0 -0 -0 -0 -0 -0 0 0 0 0 0 0
0 0 0 0 0 0 0 0 0 0 0 0 0 0 0 0 0 0 0 -0 0 -0 -0 -0 0 0 0 0 0 0 0 0
0 0 0 0 0 0 0 0 0 0 0 0 0 0 0 0 0 0 0 0 0 0 0 -0 0 -0 0 0 0 -0 0 0
0 0 0 0 0 0 0 0 0 0 0 0 0 0 0 0 0 0 0 0 0 0 0 0 -0 -0 0 0 0 0 0 0
0 0 0 0 0 0 0 0 0 0 0 0 0 0 0 0 0 0 0 0 0 0 0 -0 -0 0 0 0 0 0 0 0
0 0 0 0 0 0 0 0 0 0 0 0 0 0 0 0 0 0 0 0 0 0 0 0 0 0 0 0 0 0 0 0
0 1 0 0 0 0 0 0 0 0 0 0 0 0 0 0 0 0 0 0 0 0 0 0 0 0 0 0 0 0 0 0
0 0 0 0 0 0 0 0 1 0 1 0 0 0 0 0 0 0 0 0 0 0 0 0 0 0 0 0 0 0 0 0
0 1 0 0 0 1 1 0 1 1 1 1 1 1 1 1 0 0 0 0 0 0 0 0 0 0 0 0 0 0 0 0
-1 0 0 1 1 1 1 1 1 1 1 1 1 1 1 1 0 0 0 0 0 0 0 0 0 0 0 0 0 0 0 0
-1 -1 0 1 1 1 1 2 2 1 1 1 1 1 1 1 1 0 0 0 0 0 0 1 0 0 0 0 0 0 0 0
-1 -0 -0 1 1 2 2 1 1 1 1 1 1 1 1 0 0 0 0 0 0 0 0 0 0 0 0 0 0 0 0 0
-0 -0 -0 1 1 2 1 2 2 1 1 1 1 1 1 1 0 0 0 0 0 0 0 0 0 0 0 0 0 0 0 0
1 1 0 1 2 2 2 2 1 2 1 1 1 1 1 1 0 0 0 0 0 1 1 1 0 0 0 0 0 0 0 0
2 2 2 2 2 2 2 1 2 2 1 1 1 2 1 1 0 0 0 1 1 1 0 0 0 0 0 0 0 0 0 0
3 2 2 2 2 2 2 1 1 1 1 1 1 2 2 1 1 0 0 1 1 0 0 0 0 0 0 0 0 0 0 0
3 3 3 3 2 1 2 1 2 2 2 2 1 1 1 1 1 1 0 0 0 0 0 0 0 0 0 0 0 0 0 0
Wind_Speed_500mb
64 60 57 54 56 54 47 42 39 37 32 27 24 21 19 19 19 17 16 15 14 13 14 13 12 12 11 12 16 19 20 5
64 63 61 58 58 53 49 44 40 37 34 29 25 23 21 20 19 18 16 14 13 12 10 10 10 11 11 14 18 25 12 5
64 64 65 63 61 56 49 46 43 40 37 33 29 25 22 21 20 19 16 15 14 12 10 9 10 13 14 18 17 19 7 4
62 65 66 66 64 62 58 54 51 47 42 37 32 27 23 22 21 19 18 16 14 12 9 9 12 16 19 18 8 7 4 6
66 70 67 68 68 66 64 60 56 51 45 40 35 31 29 27 25 22 19 16 14 12 10 11 14 12 12 9 3 14 4 12
70 74 71 69 68 68 66 64 60 55 50 44 40 36 30 28 25 22 21 19 15 13 14 12 10 2 5 4 8 16 6 2
65 75 73 72 71 69 67 66 62 56 51 47 43 38 33 23 20 20 13 21 15 18 14 8 2 10 3 9 12 17 14 8
56 69 74 76 74 71 70 65 61 58 55 49 46 44 37 29 23 24 11 17 11 10 6 5 4 7 12 8 6 7 9 14
59 63 62 76 79 71 65 68 64 61 57 52 48 49 46 38 29 30 21 13 8 10 11 14 15 21 17 16 10 11 7 9
65 65 69 62 82 75 67 58 65 62 53 51 45 44 54 45 41 42 30 25 24 24 28 21 23 23 24 27 20 14 14 11
76 68 75 73 68 73 62 61 60 61 52 52 51 46 58 53 50 45 46 46 45 43 42 36 32 29 32 31 26 18 12 11
81 76 74 79 73 78 63 67 66 65 68 66 59 56 59 65 56 51 51 48 49 46 38 36 33 32 24 24 23 25 19 15
89 88 76 87 84 84 81 81 83 79 75 75 72 67 62 70 64 56 55 50 56 48 40 41 37 33 30 29 23 22 24 22
96 92 87 86 91 91 98 84 87 87 86 86 82 80 78 77 76 64 62 56 52 52 47 46 39 39 39 34 27 27 28 30
101 100 93 87 86 91 90 84 79 82 84 87 86 75 76 82 85 73 65 61 54 54 52 50 48 45 38 29 14 13 12 8
106 103 100 93 90 92 98 104 108 108 107 97 84 73 73 73 77 78 71 64 55 53 52 54 51 47 37 37 35 19 15 14
114 111 105 103 96 90 92 102 104 90 91 91 82 76 72 71 69 71 74 70 59 55 58 57 54 49 42 42 38 35 35 28
117 121 114 109 100 97 91 97 104 91 91 90 84 84 80 74 69 67 73 75 65 63 59 56 52 49 44 41 40 40 39 36
110 117 115 110 105 103 97 90 102 101 97 93 90 92 91 85 76 74 79 84 75 68 60 58 56 50 49 41 40 38 33 34
111 114 120 117 112 106 102 95 92 103 98 96 96 97 94 88 83 81 87 86 78 68 64 61 56 53 48 48 45 39 36 34
Wind_Direction_500mb
174 172 173 175 175 174 175 174 171 169 165 163 157 155 155 154 154 154 152 150 144 153 148 140 136 128 123 121 133 156 123 124
177 175 174 175 176 178 178 178 176 175 170 171 169 169 170 168 165 166 164 159 163 164 150 138 128 116 112 112 116 131 130 247
183 180 177 177 177 180 182 182 180 181 179 180 182 181 180 178 178 175 174 175 175 164 155 146 128 111 105 128 124 132 131 330
192 187 182 179 181 183 183 185 185 187 187 187 188 188 188 194 190 186 188 185 183 169 160 146 140 117 100 124 149 133 195 22
195 193 188 184 185 186 185 187 189 191 192 194 193 193 196 203 203 194 199 201 191 174 162 160 148 154 150 144 225 120 149 270
195 195 192 191 188 191 191 191 193 196 196 197 199 197 203 207 207 206 211 209 201 177 155 153 154 259 243 233 249 190 209 207
200 197 197 198 194 195 197 197 199 201 202 202 202 207 206 210 216 211 217 214 198 189 167 177 336 5 40 266 247 187 205 221
207 205 204 200 201 201 203 204 206 209 210 207 206 208 207 215 231 213 212 187 165 163 189 173 251 288 263 262 326 344 192 230
213 211 209 203 209 206 207 210 212 214 219 215 212 207 203 210 225 224 218 207 207 221 237 230 235 246 251 241 258 260 261 252
210 213 212 204 209 208 209 212 215 215 217 218 206 202 201 209 216 217 213 216 231 217 218 224 233 239 251 255 261 251 246 259
206 213 215 209 203 206 206 212 214 210 214 217 209 202 204 208 218 215 209 206 209 223 227 227 240 248 253 246 243 246 253 260
210 209 218 212 208 204 204 207 208 211 212 217 215 209 207 211 213 218 213 211 216 223 224 224 239 238 243 240 261 246 251 259
208 205 211 211 209 203 201 203 208 212 216 217 220 223 217 216 217 213 216 214 218 223 216 226 236 233 232 239 238 242 249 252
211 210 207 211 214 211 205 206 213 217 216 221 222 227 227 221 223 218 216 219 218 221 215 225 228 231 236 243 250 248 243 248
212 211 211 212 216 212 208 208 212 216 223 225 228 220 219 218 220 222 219 222 221 218 216 222 222 229 236 231 203 211 184 191
211 212 213 214 213 213 212 208 211 218 219 226 228 222 212 212 214 218 220 222 221 218 215 221 224 228 228 224 229 220 195 158
210 211 213 213 214 219 218 214 220 217 220 220 223 225 218 215 215 216 218 220 219 216 216 218 224 232 230 230 224 240 236 216
209 208 210 212 215 219 221 223 218 210 219 219 218 220 219 219 219 216 214 218 216 216 220 225 229 232 232 236 242 231 231 224
210 209 210 214 216 219 222 227 221 217 218 220 214 215 218 221 219 216 212 215 216 217 219 220 219 227 237 225 222 223 228 217
213 212 211 213 216 222 224 226 222 215 217 219 220 221 221 220 219 218 213 212 216 217 218 217 224 220 216 219 225 229 225 227
Wind_Speed_850mb
64 60 57 54 56 54 47 42 39 37 32 27 24 21 19 19 19 17 16 15 14 13 14 13 12 12 11 12 16 19 20 5
64 63 61 58 58 53 49 44 40 37 34 29 25 23 21 20 19 18 16 14 13 12 10 10 10 11 11 14 18 25 12 5
64 64 65 63 61 56 49 46 43 40 37 33 29 25 22 21 20 19 16 15 14 12 10 9 10 13 14 18 17 19 7 4
62 65 66 66 64 62 58 54 51 47 42 37 32 27 23 22 21 19 18 16 14 12 9 9 12 16 19 18 8 7 4 6
66 70 67 68 68 66 64 60 56 51 45 40 35 31 29 27 25 22 19 16 14 12 10 11 14 12 12 9 3 14 4 12
70 74 71 69 68 68 66 64 60 55 50 44 40 36 30 28 25 22 21 19 15 13 14 12 10 2 5 4 8 16 6 2
65 75 73 72 71 69 67 66 62 56 51 47 43 38 33 23 20 20 13 21 15 18 14 8 2 10 3 9 12 17 14 8
56 69 74 76 74 71 70 65 61 58 55 49 46 44 37 29 23 24 11 17 11 10 6 5 4 7 12 8 6 7 9 14
59 63 62 76 79 71 65 68 64 61 57 52 48 49 46 38 29 30 21 13 8 10 11 14 15 21 17 16 10 11 7 9
65 65 69 62 82 75 67 58 65 62 53 51 45 44 54 45 41 42 30 25 24 24 28 21 23 23 24 27 20 14 14 11
76 68 75 73 68 73 62 61 60 61 52 52 51 46 58 53 50 45 46 46 45 43 42 36 32 29 32 31 26 18 12 11
81 76 74 79 73 78 63 67 66 65 68 66 59 56 59 65 56 51 51 48 49 46 38 36 33 32 24 24 23 25 19 15
89 88 76 87 84 84 81 81 83 79 75 75 72 67 62 70 64 56 55 50 56 48 40 41 37 33 30 29 23 22 24 22
96 92 87 86 91 91 98 84 87 87 86 86 82 80 78 77 76 64 62 56 52 52 47 46 39 39 39 34 27 27 28 30
101 100 93 87 86 91 90 84 79 82 84 87 86 75 76 82 85 73 65 61 54 54 52 50 48 45 38 29 14 13 12 8
106 103 100 93 90 92 98 104 108 108 107 97 84 73 73 73 77 78 71 64 55 53 52 54 51 47 37 37 35 19 15 14
114 111 105 103 96 90 92 102 104 90 91 91 82 76 72 71 69 71 74 70 59 55 58 57 54 49 42 42 38 35 35 28
117 121 114 109 100 97 91 97 104 91 91 90 84 84 80 74 69 67 73 75 65 63 59 56 52 49 44 41 40 40 39 36
110 117 115 110 105 103 97 90 102 101 97 93 90 92 91 85 76 74 79 84 75 68 60 58 56 50 49 41 40 38 33 34
111 114 120 117 112 106 102 95 92 103 98 96 96 97 94 88 83 81 87 86 78 68 64 61 56 53 48 48 45 39 36 34
Wind_Direction_850mb
174 172 173 175 175 174 175 174 171 169 165 163 157 155 155 154 154 154 152 150 144 153 148 140 136 128 123 121 133 156 123 124
177 175 174 175 176 178 178 178 176 175 170 171 169 169 170 168 165 166 164 159 163 164 150 138 128 116 112 112 116 131 130 247
183 180 177 177 177 180 182 182 180 181 179 180 182 181 180 178 178 175 174 175 175 164 155 146 128 111 105 128 124 132 131 330
192 187 182 179 181 183 183 185 185 187 187 187 188 188 188 194 190 186 188 185 183 169 160 146 140 117 100 124 149 133 195 22
195 193 188 184 185 186 185 187 189 191 192 194 193 193 196 203 203 194 199 201 191 174 162 160 148 154 150 144 225 120 149 270
195 195 192 191 188 191 191 191 193 196 196 197 199 197 203 207 207 206 211 209 201 177 155 153 154 259 243 233 249 190 209 207
200 197 197 198 194 195 197 197 199 201 202 202 202 207 206 210 216 211 217 214 198 189 167 177 336 5 40 266 247 187 205 221
207 205 204 200 201 201 203 204 206 209 210 207 206 208 207 215 231 213 212 187 165 163 189 173 251 288 263 262 326 344 192 230
213 211 209 203 209 206 207 210 212 214 219 215 212 207 203 210 225 224 218 207 207 221 237 230 235 246 251 241 258 260 261 252
210 213 212 204 209 208 209 212 215 215 217 218 206 202 201 209 216 217 213 216 231 217 218 224 233 239 251 255 261 251 246 259
206 213 215 209 203 206 206 212 214 210 214 217 209 202 204 208 218 215 209 206 209 223 227 227 240 248 253 246 243 246 253 260
210 209 218 212 208 204 204 207 208 211 212 217 215 209 207 211 213 218 213 211 216 223 224 224 239 238 243 240 261 246 251 259
208 205 211 211 209 203 201 203 208 212 216 217 220 223 217 216 217 213 216 214 218 223 216 226 236 233 232 239 238 242 249 252
211 210 207 211 214 211 205 206 213 217 216 221 222 227 227 221 223 218 216 219 218 221 215 225 228 231 236 243 250 248 243 248
212 211 211 212 216 212 208 208 212 216 223 225 228 220 219 218 220 222 219 222 221 218 216 222 222 229 236 231 203 211 184 191
211 212 213 214 213 213 212 208 211 218 219 226 228 222 212 212 214 218 220 222 221 218 215 221 224 228 228 224 229 220 195 158
210 211 213 213 214 219 218 214 220 217 220 220 223 225 218 215 215 216 218 220 219 216 216 218 224 232 230 230 224 240 236 216
209 208 210 212 215 219 221 223 218 210 219 219 218 220 219 219 219 216 214 218 216 216 220 225 229 232 232 236 242 231 231 224
210 209 210 214 216 219 222 227 221 217 218 220 214 215 218 221 219 216 212 215 216 217 219 220 219 227 237 225 222 223 228 217
213 212 211 213 216 222 224 226 222 215 217 219 220 221 221 220 219 218 213 212 216 217 218 217 224 220 216 219 225 229 225 227